RH
21 20 20 20 19 18 18 17 16 16 19 22 24 27 26 24 24 23 22 22 23 22 20 22 27 35 37 35 31 32 46 41 56 55 50 39 45 60 53 47 39 34 29 24 15
18 17 17 16 16 16 16 16 16 17 21 25 27 25 22 20 20 19 20 22 22 18 18 21 26 38 40 34 34 38 38 46 51 52 45 45 47 34 17 13 12 12 12 9 7
17 16 16 16 16 15 15 15 14 14 14 14 17 20 22 22 19 21 32 21 19 16 16 21 28 33 28 28 36 39 30 42 49 59 54 53 20 15 15 12 10 7 6 4 3
22 21 19 18 15 14 14 14 14 14 14 14 16 19 21 21 23 27 23 20 14 14 17 18 18 15 15 23 24 28 21 24 16 19 16 16 19 14 10 14 10 9 8 6 6
22 22 19 17 18 15 14 14 14 13 14 16 22 27 26 21 23 26 17 15 13 11 10 10 10 11 12 14 16 14 20 16 24 34 30 20 14 11 18 12 6 10 12 8 7
20 22 19 17 19 18 15 14 14 12 13 18 22 27 26 22 29 15 13 12 11 10 10 9 10 11 12 14 14 16 14 30 40 36 25 16 9 15 15 7 5 7 5 6 12
18 22 19 18 19 19 15 14 12 10 11 16 17 28 24 23 15 14 14 12 11 11 10 10 10 12 13 16 17 24 37 43 39 32 16 20 15 17 12 6 7 10 11 18 22
18 19 21 20 21 18 14 11 8 8 11 17 22 28 22 16 17 18 19 14 13 12 11 11 12 12 16 20 33 48 32 35 35 14 19 25 14 14 14 9 8 21 25 25 24
18 18 22 20 21 16 11 6 6 7 14 20 26 26 22 19 21 26 24 15 17 14 16 18 17 26 37 31 40 29 30 23 14 17 25 30 20 14 13 12 12 21 23 24 26
18 18 22 20 20 14 8 5 6 9 15 25 32 32 22 21 26 32 22 25 21 18 24 26 23 35 44 37 36 37 32 21 21 22 25 20 17 12 10 13 16 21 22 26 34
17 18 20 22 20 15 6 4 9 16 19 24 28 28 20 22 28 35 24 36 24 20 21 21 29 37 45 46 48 46 36 28 23 25 31 19 16 10 12 15 18 24 22 29 43
20 18 20 23 20 16 5 4 8 19 27 30 25 23 22 30 37 37 41 36 27 21 21 30 30 38 41 42 39 39 30 26 26 28 24 20 17 16 18 20 24 25 26 30 42
21 19 22 25 20 13 5 4 6 19 29 29 31 33 35 44 46 46 42 37 27 25 27 29 32 38 41 40 38 32 31 32 36 28 20 31 24 22 20 26 29 27 34 46 47
23 21 25 26 17 13 4 3 7 21 33 30 36 39 49 56 48 46 41 37 31 28 30 31 33 37 40 39 36 34 29 29 30 34 46 40 61 25 23 26 31 29 43 47 44
25 26 29 23 17 6 4 4 10 25 44 35 41 45 58 56 50 47 44 41 32 36 37 37 36 37 35 34 39 37 30 30 33 43 53 44 55 36 31 33 30 37 46 44 46
30 31 31 17 12 4 4 8 18 33 52 42 51 62 62 56 48 49 48 49 46 41 41 38 41 42 37 38 47 46 35 28 36 44 74 54 54 40 34 33 31 41 45 44 37
32 30 26 12 6 4 7 17 31 38 39 50 62 64 65 54 54 53 55 53 49 45 46 45 38 34 33 38 44 49 35 52 49 69 72 48 47 33 32 34 36 35 37 42 42
33 27 16 8 5 9 16 29 43 41 48 58 64 63 59 58 60 61 62 59 50 53 56 56 41 38 41 44 41 41 45 40 58 86 59 45 56 33 31 32 36 35 49 50 51
33 24 12 5 6 17 35 40 47 54 64 65 64 61 61 64 64 68 64 63 52 51 53 49 45 43 44 43 47 50 46 47 54 59 86 63 53 32 35 36 36 31 32 39 56
33 22 8 6 11 29 53 52 58 64 74 72 70 66 70 74 70 68 68 60 57 56 57 53 55 47 42 43 46 46 51 59 62 84 87 67 59 41 36 37 33 37 45 57 64
33 17 7 8 22 39 60 65 67 75 80 69 72 75 77 77 73 74 70 66 63 57 61 66 70 53 54 52 49 53 62 68 67 61 96 98 60 41 45 42 44 42 55 66 68
31 13 10 16 23 64 66 69 72 78 73 78 78 75 80 80 80 80 70 70 69 68 71 79 80 85 55 65 72 73 69 75 75 79 94 97 69 48 49 42 46 54 67 58 56
25 10 8 14 39 69 76 78 81 82 75 75 81 80 79 81 76 76 75 72 76 74 67 69 82 85 60 61 51 63 59 66 76 84 94 94 64 40 46 40 54 69 53 55 55
16 11 12 25 50 65 79 82 89 79 79 80 86 82 83 82 81 79 75 80 79 82 83 86 94 89 76 63 70 78 78 76 74 87 78 82 75 58 54 50 64 65 44 44 54
14 11 10 26 53 76 78 79 86 87 91 89 87 86 88 91 83 82 79 76 81 84 93 100 97 96 93 92 96 98 91 85 87 80 100 63 79 56 55 68 65 52 44 52 64
17 11 12 26 47 90 98 91 90 91 93 91 87 97 90 81 86 92 90 91 82 82 90 92 98 100 100 88 84 92 78 75 75 81 93 72 66 50 63 60 54 49 40 45 65
19 15 26 52 58 86 79 81 83 99 99 98 93 99 94 90 85 82 88 86 98 97 100 100 99 97 93 80 91 88 47 48 48 57 59 60 52 54 58 58 53 45 39 40 77
Wind_Speed
17 18 18 19 19 19 19 19 19 19 19 20 21 20 21 21 20 19 18 17 15 16 10 9 10 11 10 10 13 13 12 11 11 13 16 16 16 18 21 26 25 30 34 38 39
17 17 18 19 20 21 21 21 20 20 20 20 21 21 19 17 17 17 16 12 7 10 9 9 11 10 11 13 12 13 14 10 16 17 18 15 18 23 21 20 24 24 24 27 29
18 18 18 18 18 19 20 21 21 21 20 20 20 19 18 17 17 13 6 6 8 5 5 6 9 10 11 10 11 13 13 12 13 16 20 21 18 16 17 15 20 22 23 25 26
17 19 19 19 19 19 21 22 21 22 22 21 20 18 17 15 9 9 10 5 2 1 2 5 7 8 8 10 12 14 11 12 7 13 15 15 12 15 15 18 23 24 26 27 27
20 22 22 21 20 20 20 21 21 21 22 22 20 18 15 10 8 7 4 4 5 6 5 6 6 6 7 7 8 9 6 8 7 5 6 14 16 18 17 21 22 22 23 27 28
19 22 23 22 20 20 20 21 21 21 21 20 21 18 10 6 3 3 5 8 8 6 6 6 6 6 7 6 7 5 6 4 3 5 14 20 17 19 15 20 22 23 27 26 26
18 20 23 22 21 21 20 20 21 21 22 20 21 15 5 3 4 5 9 7 6 6 5 6 5 6 5 6 4 6 3 4 6 10 19 21 19 17 16 21 23 28 27 23 25
17 19 21 21 21 21 20 20 21 22 22 22 19 10 3 5 5 8 11 7 7 8 7 4 5 5 4 5 5 4 4 5 4 15 11 20 26 15 17 22 23 27 24 23 21
18 19 21 20 20 21 21 21 21 23 20 20 14 6 3 5 7 12 11 6 10 8 7 4 6 3 3 2 2 5 7 17 19 14 17 18 29 21 21 25 25 25 27 24 24
19 19 19 20 20 20 21 22 23 23 21 19 7 0 5 4 8 16 7 12 10 7 5 5 5 3 3 4 3 10 17 21 21 18 22 25 31 30 27 28 24 27 26 24 26
19 19 19 20 20 20 21 21 24 19 21 16 6 5 6 5 9 16 6 16 9 7 8 7 7 5 4 7 11 16 20 23 22 22 26 32 36 35 32 25 22 27 25 24 27
19 20 19 18 20 20 20 21 21 20 16 6 8 5 2 7 13 9 15 13 7 7 9 10 8 2 7 11 16 17 21 22 24 21 29 30 40 23 7 11 18 22 21 23 28
18 20 19 18 17 20 19 20 20 21 7 5 5 5 5 12 13 15 15 12 7 8 8 14 9 11 14 15 15 18 20 20 23 31 30 25 24 11 17 13 14 17 20 23 28
19 19 18 19 18 17 19 21 21 18 3 4 3 3 11 18 8 16 12 12 8 9 14 4 3 7 9 13 16 21 14 19 24 24 13 27 8 17 10 11 14 18 19 24 27
19 19 17 17 18 17 18 19 19 13 2 2 3 5 16 16 14 8 11 12 9 12 12 5 11 13 15 14 13 17 18 24 29 27 24 5 7 4 12 4 14 15 18 24 23
19 18 18 15 17 17 18 16 15 3 2 3 4 13 16 16 9 11 11 13 16 10 12 6 9 15 13 14 15 17 20 30 14 7 1 6 9 10 5 17 13 13 17 19 25
20 18 17 15 16 16 16 14 5 3 3 3 8 15 18 10 12 8 13 12 11 8 6 14 7 6 10 13 15 16 21 7 5 3 5 8 12 15 13 6 6 13 19 25 30
21 19 18 16 15 17 12 11 7 6 5 8 11 13 7 8 9 11 14 13 6 5 12 6 3 6 6 9 9 16 7 0 4 3 5 27 9 5 9 6 14 21 18 28 30
23 20 19 17 16 14 14 5 5 7 6 6 9 5 3 7 10 11 11 12 5 4 4 6 6 8 11 13 10 5 5 7 8 16 5 7 10 12 18 21 21 26 32 39 31
24 21 18 17 16 12 14 8 9 10 8 7 4 5 5 9 9 7 7 8 7 8 9 8 12 12 13 15 16 15 11 4 5 3 5 8 11 21 16 22 30 28 40 37 36
24 22 19 17 13 14 12 9 11 11 8 6 5 6 7 9 9 10 7 8 12 12 12 11 10 7 12 7 7 9 15 11 8 8 4 5 7 6 16 25 35 35 40 37 39
24 23 18 15 15 12 12 12 13 11 9 7 7 5 8 8 12 9 9 7 11 13 13 15 10 12 22 20 19 19 18 17 10 5 11 10 28 31 1 5 36 42 35 32 34
25 24 22 20 17 14 14 15 15 12 12 9 7 8 11 10 7 10 12 10 14 13 7 10 8 8 6 2 5 9 13 17 20 22 25 10 16 8 32 50 37 38 32 29 28
26 21 21 18 17 18 16 17 19 11 11 12 12 12 11 13 12 10 15 11 14 14 15 17 18 21 16 18 22 25 25 26 28 25 42 37 52 53 50 40 37 32 32 31 29
29 26 25 16 13 14 16 16 16 15 16 12 13 11 12 12 15 17 11 13 18 20 21 19 27 28 32 33 32 35 37 37 40 45 38 60 51 42 31 33 29 32 37 30 25
32 30 27 24 20 18 21 27 20 18 18 18 19 13 16 16 13 21 20 19 16 16 18 23 26 23 28 34 34 36 34 35 38 40 42 38 39 29 27 23 27 33 26 24 24
35 30 26 25 21 21 25 24 16 17 19 18 14 19 19 16 17 18 20 22 22 25 23 24 20 18 12 8 16 27 15 15 17 15 19 30 33 28 23 25 31 25 25 26 23
Wind_Direction
6 3 0 355 350 345 342 339 334 329 324 321 320 320 314 309 304 298 288 283 280 274 262 255 238 230 228 241 254 247 237 242 238 239 240 246 248 255 262 269 270 268 267 268 271
358 354 351 348 345 342 340 338 336 334 331 328 325 323 319 316 307 295 293 288 252 270 264 245 236 228 233 253 243 230 242 255 242 250 259 271 276 279 274 271 266 268 270 277 279
351 346 342 339 337 337 335 335 336 336 333 329 328 326 322 318 303 295 285 276 268 265 231 221 225 237 256 256 244 246 250 245 246 260 268 279 284 286 297 300 297 304 308 307 303
349 347 344 341 338 338 336 334 335 336 335 334 331 327 323 316 302 296 297 301 285 326 257 240 245 253 250 240 247 250 260 253 245 251 263 271 287 301 318 316 321 326 320 312 303
351 349 346 341 338 340 339 337 338 339 339 337 336 333 327 323 309 311 318 338 341 333 320 299 289 282 261 247 249 255 228 261 264 244 283 303 313 316 332 326 323 318 306 303 314
349 349 346 340 339 342 341 341 339 342 344 344 339 333 332 327 328 20 2 343 336 341 336 309 300 289 286 273 274 258 276 241 219 309 328 312 315 313 327 318 310 302 300 311 327
344 346 346 344 342 342 343 342 340 341 346 344 342 337 351 59 79 29 360 352 341 336 327 316 309 303 286 284 267 285 276 219 261 312 323 304 311 312 314 316 311 297 308 320 330
339 342 345 345 343 342 341 343 340 342 346 345 348 352 57 94 51 23 359 354 346 334 325 313 318 301 281 275 287 280 297 271 269 314 312 304 304 310 314 314 304 297 307 311 318
333 337 341 342 340 339 339 340 340 344 340 341 345 9 134 75 34 10 357 3 339 334 320 313 336 326 306 246 250 320 313 313 319 322 310 309 300 313 314 310 294 285 299 302 299
329 332 335 337 336 337 336 341 340 340 336 335 338 269 165 44 21 358 0 347 338 333 309 287 322 318 274 304 302 319 316 315 312 318 306 307 305 310 311 306 287 282 295 299 296
323 325 328 333 331 334 335 338 338 337 331 329 318 157 143 9 354 347 342 338 334 321 308 302 333 332 336 326 320 313 308 304 313 317 311 315 309 311 311 289 272 283 297 302 290
318 318 322 327 327 329 333 337 333 330 330 3 106 101 52 351 338 346 330 340 332 320 315 322 326 276 314 314 303 299 303 308 315 316 315 315 305 323 336 303 277 287 306 302 290
314 315 317 320 323 325 330 332 333 334 342 110 81 67 24 347 339 339 335 339 334 327 316 311 297 273 289 292 296 298 305 310 309 317 313 308 314 191 358 298 299 319 319 297 290
309 310 314 317 321 327 330 334 335 335 197 134 17 37 353 347 336 339 340 340 330 317 322 322 316 300 281 284 300 305 317 307 307 315 320 312 289 283 330 299 329 333 295 283 293
302 305 309 314 317 325 329 333 335 331 34 205 356 339 340 340 329 343 340 340 325 312 307 297 292 291 286 301 300 302 310 310 307 296 300 309 248 240 324 304 322 297 274 289 299
295 299 304 310 313 321 328 330 333 314 240 276 318 328 329 336 338 336 343 336 323 311 295 301 278 290 293 293 291 297 307 311 300 279 244 173 2 285 320 311 307 309 298 306 310
289 291 295 301 313 316 323 326 304 203 240 248 316 322 324 327 329 335 332 332 314 314 313 308 286 290 281 286 290 299 317 332 351 1 232 212 318 256 287 307 0 344 329 327 321
282 284 287 297 309 313 312 318 249 220 224 271 309 312 313 327 324 326 315 316 311 273 296 312 296 267 292 278 278 307 313 210 267 266 270 290 249 245 224 266 315 333 332 329 317
278 278 283 295 302 305 306 274 244 234 246 283 306 288 279 319 309 311 306 294 267 263 256 294 273 277 268 270 280 313 280 285 272 269 306 241 255 243 250 260 280 305 321 324 320
275 275 277 286 295 290 296 264 238 240 273 287 284 252 279 303 298 302 297 274 274 254 249 275 285 284 263 266 270 255 272 266 232 328 289 263 252 249 259 273 270 311 325 321 312
267 272 275 275 273 282 274 254 243 253 277 305 287 277 279 295 283 288 251 259 270 276 281 281 263 261 284 269 258 260 241 237 242 243 214 298 243 282 285 287 294 305 316 319 314
257 263 269 267 269 261 252 254 249 241 266 293 299 276 287 286 295 283 255 254 277 287 287 287 270 268 292 281 259 254 245 246 238 228 224 266 280 297 259 285 312 318 319 311 306
248 257 259 264 257 241 256 245 236 241 260 266 281 291 297 285 291 281 283 289 276 276 270 284 255 294 307 282 235 243 260 259 252 263 250 249 261 237 287 303 318 318 316 310 309
243 244 251 245 238 254 248 241 229 243 256 265 271 288 290 283 289 270 282 291 288 284 267 279 262 247 242 280 285 277 269 260 262 275 275 255 275 291 300 309 311 307 314 311 308
236 239 244 238 232 225 237 223 230 235 258 273 272 270 284 272 295 283 276 280 284 284 273 268 266 271 276 280 278 279 278 272 264 263 258 279 284 301 307 307 303 308 313 306 308
235 237 240 241 237 235 225 236 243 246 259 268 268 269 278 278 288 283 285 284 287 274 266 261 265 277 280 287 287 282 279 277 274 274 270 281 292 311 304 296 299 310 318 310 304
238 241 241 244 242 239 248 257 259 245 259 269 258 252 281 292 283 288 286 291 282 277 274 271 267 284 288 286 294 291 284 259 266 263 276 287 298 296 291 296 306 309 323 323 305